Regional Weather Roundup
Issued by NWS

Home | Current Version | Previous Version | Graphics & Text | Print | Product List | Glossary On
Versions: 1 2 3 4 5 6 7 8 9 10 11 12 13 14 15 16 17 18 19 20 21 22 23 24 25 26 27 28 29 30 31 32 33 34 35 36 37 38 39 40 41 42 43 44 45 46 47 48 49 50
000
ASUS43 KBIS 102202
RWRND

NORTH DAKOTA REGIONAL WEATHER ROUNDUP
NATIONAL WEATHER SERVICE BISMARCK ND
400 PM CST SAT DEC 10 2016

NOTE: "FAIR" INDICATES FEW OR NO CLOUDS BELOW 12,000 FEET WITH NO
SIGNIFICANT WEATHER AND/OR OBSTRUCTIONS TO VISIBILITY.


NDZ001>003-009>011-017-102300-
NORTHWEST NORTH DAKOTA

CITY           SKY/WX    TMP DP  RH WIND       PRES   REMARKS
WILLISTON      FLURRIES   2  -5  72 E12       29.99F WCI -15
MINOT          CLOUDY    -8 -13  78 E9        30.11F WCI -25
MINOT AFB      CLOUDY   -10 -15  78 E12       30.11F WCI -30
$$

NDZ018>021-031>035-040>046-102300-
SOUTHWEST NORTH DAKOTA

CITY           SKY/WX    TMP DP  RH WIND       PRES   REMARKS
BISMARCK       LGT SNOW  -3  -7  82 E13       30.08F FOG     WCI -22
GARRISON         N/A     -4  -9  79 E12       30.05F WCI -22
HETTINGER ARPT CLOUDY    -2  -6  83 SE15      29.88F WCI -22
$$

NDZ004>008-012>016-024-026-027-054-102300-
NORTHEAST NORTH DAKOTA

CITY           SKY/WX    TMP DP  RH WIND       PRES   REMARKS
GRAND FORKS    CLOUDY    -3  -9  75 E8        30.31F WCI -18
GRND FRKS AFB  CLOUDY    -4 -10  75 E5        30.30F WCI -15
DEVILS LAKE    CLOUDY    -5  -9  83 E10       30.21F WCI -23
$$

NDZ022-023-025-028>030-036>039-047>053-102300-
SOUTHEAST NORTH DAKOTA

CITY           SKY/WX    TMP DP  RH WIND       PRES   REMARKS
FARGO          CLOUDY     1  -6  72 NE9       30.29F WCI -14
$$





USA.gov is the U.S. government's official web portal to all federal, state and local government web resources and services.